Paducah, KY

5:50 AM CDT on May 29, 2017 (GMT -0500)
Barkley Regional

Weather History for KPAH - April, 2014

Change the Weather History Date:

Friday, April 25, 2014

  Actual Average Record
Temperature  
Mean Temperature 66 °F 61 °F  
Max Temperature 76 °F 72 °F 88 °F (1986)
Min Temperature 55 °F 50 °F 32 °F (2013)
Degree Days  
Heating Degree Days 0 5  
Month to date heating degree days 166 220  
Since 1 July heating degree days 4467 4039  
Cooling Degree Days 1 2  
Month to date cooling degree days 24 28  
Year to date cooling degree days 24 35  
Growing Degree Days 16 (Base 50)    
Moisture  
Dew Point 47 °F    
Average Humidity 56    
Maximum Humidity 84    
Minimum Humidity 27    
Precipitation  
Precipitation T in 0.17 in 2.36 in (2011)
Month to date precipitation 5.01 3.90  
Year to date precipitation 13.84 15.42  
Snow  
Snow 0.00 in 0.00 in 0.00 in (2002)
Month to date snowfall 0.0 0.0  
Since 1 July snowfall 18.5 9.1  
Snow Depth 0.00 in    
Sea Level Pressure  
Sea Level Pressure 29.83 in    
Wind  
Wind Speed 8 mph (WNW)    
Max Wind Speed 18 mph    
Max Gust Speed 25 mph    
Visibility 10 miles    
Events Rain , Thunderstorm    
T = Trace of Precipitation, MM = Missing Value Source: NWS Daily Summary

Daily Weather History Graph

Daily Weather History Graph

Search for Another Location

Airport or City:

Trip Planner

Search our weather history database for the weather conditions in past years. The results will help you decide how hot, cold, wet, or windy it might be!

Date:

Astronomy

Apr. 25, 2014 Rise Set
Actual Time 6:07 AM CDT 7:38 PM CDT
Civil Twilight 5:40 AM CDT 8:06 PM CDT
Nautical Twilight 5:07 AM CDT 8:39 PM CDT
Astronomical Twilight 4:32 AM CDT 9:14 PM CDT
Moon 3:50 AM CDT (4/25) 4:06 PM CDT (4/25)
Length of Visible Light 14h 26m
Length of Day
13h 31m
Waning Crescent, 15% of the Moon is Illuminated
Apr 25
Waning Crescent
Apr 29
New
May 6
First Quarter
May 14
Full
May 21
Last Quarter

Hourly Weather History & Observations

Time (CDT) Temp. Dew Point Humidity Pressure Visibility Wind Dir Wind Speed Gust Speed Precip Events Conditions
12:21 AM 61.0 °F 57.9 °F 90% 29.67 in 9.0 mi West 6.9 mph - N/A   Partly Cloudy
12:39 AM 62.1 °F 57.9 °F 86% 29.68 in 8.0 mi WNW 10.4 mph 16.1 mph N/A   Mostly Cloudy
12:53 AM 63.0 °F 55.9 °F 78% 29.67 in 10.0 mi WNW 6.9 mph - N/A   Overcast
1:14 AM 62.1 °F 55.0 °F 78% 29.68 in 10.0 mi West 6.9 mph - 0.00 in Rain Light Rain
1:36 AM 61.0 °F 55.0 °F 81% 29.66 in 10.0 mi West 4.6 mph - 0.00 in Rain , Thunderstorm Light Rain
1:53 AM 60.1 °F 55.0 °F 83% 29.66 in 10.0 mi West 9.2 mph - 0.00 in   Overcast
2:53 AM 59.0 °F 54.0 °F 83% 29.68 in 10.0 mi West 11.5 mph - 0.00 in   Mostly Cloudy
3:53 AM 59.0 °F 55.0 °F 87% 29.68 in 10.0 mi WSW 9.2 mph - 0.00 in Rain Light Rain
4:23 AM 59.0 °F 55.0 °F 87% 29.72 in 10.0 mi West 12.7 mph - 0.00 in   Overcast
4:39 AM 59.0 °F 55.0 °F 87% 29.72 in 10.0 mi West 11.5 mph - 0.00 in   Overcast
4:53 AM 59.0 °F 55.0 °F 87% 29.73 in 10.0 mi West 13.8 mph - 0.00 in   Mostly Cloudy
5:15 AM 60.1 °F 55.0 °F 83% 29.75 in 10.0 mi West 17.3 mph 24.2 mph N/A   Overcast
5:53 AM 59.0 °F 53.1 °F 81% 29.76 in 10.0 mi WNW 15.0 mph 23.0 mph N/A   Overcast
6:53 AM 57.9 °F 51.1 °F 78% 29.81 in 10.0 mi NW 12.7 mph 19.6 mph N/A   Overcast
7:53 AM 57.9 °F 51.1 °F 78% 29.86 in 10.0 mi NW 11.5 mph 19.6 mph N/A   Overcast
8:28 AM 59.0 °F 50.0 °F 72% 29.88 in 10.0 mi NW 11.5 mph 19.6 mph N/A   Scattered Clouds
8:53 AM 62.1 °F 50.0 °F 65% 29.88 in 10.0 mi NW 9.2 mph - N/A   Clear
9:53 AM 64.9 °F 45.0 °F 48% 29.92 in 10.0 mi NW 12.7 mph - N/A   Clear
10:53 AM 66.9 °F 44.1 °F 44% 29.94 in 10.0 mi North 12.7 mph - N/A   Clear
11:53 AM 70.0 °F 41.0 °F 35% 29.95 in 10.0 mi North 12.7 mph 25.3 mph N/A   Clear
12:53 PM 71.1 °F 37.0 °F 29% 29.96 in 10.0 mi NNW 12.7 mph 23.0 mph N/A   Clear
1:53 PM 73.0 °F 39.0 °F 29% 29.96 in 10.0 mi NNW 11.5 mph - N/A   Clear
2:53 PM 73.9 °F 37.9 °F 27% 29.96 in 10.0 mi North 11.5 mph - N/A   Clear
3:53 PM 75.0 °F 39.9 °F 28% 29.94 in 10.0 mi Variable 3.5 mph - N/A   Clear
4:53 PM 75.0 °F 39.9 °F 28% 29.94 in 10.0 mi North 6.9 mph - N/A   Clear
5:53 PM 73.9 °F 37.9 °F 27% 29.93 in 10.0 mi Calm Calm - N/A   Clear
6:53 PM 72.0 °F 39.0 °F 30% 29.93 in 10.0 mi West 3.5 mph - N/A   Clear
7:53 PM 64.9 °F 39.0 °F 39% 29.93 in 10.0 mi Calm Calm - N/A   Clear
8:53 PM 63.0 °F 39.9 °F 43% 29.94 in 10.0 mi South 5.8 mph - N/A   Clear
9:53 PM 64.9 °F 37.9 °F 37% 29.95 in 10.0 mi South 3.5 mph - N/A   Clear
10:53 PM 64.0 °F 39.0 °F 40% 29.95 in 10.0 mi SSW 3.5 mph - N/A   Clear
11:53 PM 57.2 °F 44.6 °F 63% 29.95 in 10.0 mi SSW 3.5 mph - N/A   Clear